GW4850 Weather Reports


time (UTC)temp
C
wind
direction
speed
KPH
gust
KPH
rain 1hr
cm
rain 24hr
cm
rain mn
cm
humidity
%
barometer
mb
20260509201505 17 44 3.2 3.2 0.00 0.05 0.05 73 1010.8
20260509201003 17 65 3.2 6.4 0.00 0.05 0.05 74 1010.8
20260509200458 17 56 4.8 6.4 0.00 0.05 0.05 73 1010.7
20260509195954 17 52 4.8 6.4 0.00 0.05 0.05 75 1010.8
20260509195450 17 62 4.8 9.7 0.00 0.05 0.05 74 1011.0
20260509194949 17 61 4.8 4.8 0.00 0.05 0.05 76 1010.9
20260509194445 17 74 4.8 6.4 0.00 0.05 0.05 74 1011.0
20260509193942 17 76 6.4 6.4 0.00 0.05 0.05 72 1010.8
20260509193442 17 82 4.8 9.7 0.00 0.05 0.05 73 1011.1
20260509192938 17 53 1.6 4.8 0.00 0.05 0.05 72 1011.1
20260509192435 17 47 4.8 6.4 0.00 0.05 0.05 73 1011.1
20260509191930 17 109 3.2 4.8 0.00 0.05 0.05 73 1011.1
20260509191425 17 82 3.2 4.8 0.00 0.05 0.05 73 1011.2
20260509190922 17 57 3.2 3.2 0.00 0.05 0.05 73 1011.1
20260509190419 16 63 1.6 3.2 0.00 0.05 0.05 74 1011.2
20260509185917 16 63 3.2 4.8 0.00 0.05 0.05 73 1011.2
20260509185414 16 39 1.6 4.8 0.00 0.05 0.05 75 1011.5
20260509184911 16 33 0.0 0.0 0.00 0.05 0.05 74 1011.1
20260509184408 16 356 1.6 4.8 0.00 0.05 0.05 74 1011.2
20260509183905 16 336 0.0 1.6 0.00 0.05 0.05 77 1011.1
20260509183359 16 357 0.0 0.0 0.00 0.05 0.05 75 1011.2
20260509182855 16 60 0.0 0.0 0.00 0.05 0.05 77 1011.1
20260509182352 16 2 0.0 0.0 0.00 0.05 0.05 77 1011.3
20260509181850 16 327 0.0 0.0 0.00 0.05 0.05 76 1011.5
20260509181347 16 327 0.0 1.6 0.00 0.05 0.05 77 1011.3
20260509180844 16 335 0.0 0.0 0.00 0.05 0.05 80 1011.3
20260509180340 16 335 1.6 3.2 0.00 0.05 0.05 79 1011.5
20260509175837 15 60 1.6 3.2 0.00 0.05 0.05 80 1011.4
20260509175333 15 54 1.6 3.2 0.00 0.05 0.05 82 1011.4
20260509174829 15 26 3.2 4.8 0.00 0.05 0.05 83 1011.5
20260509174325 15 7 3.2 3.2 0.00 0.05 0.05 85 1011.5
20260509173821 15 56 3.2 3.2 0.00 0.05 0.05 86 1011.6
20260509173317 15 31 0.0 1.6 0.00 0.05 0.05 86 1011.7
20260509172813 15 14 0.0 1.6 0.00 0.05 0.05 86 1011.8
20260509172310 15 331 1.6 3.2 0.00 0.05 0.05 88 1011.9
20260509171806 15 49 4.8 4.8 0.00 0.05 0.05 88 1012.1
20260509171302 15 321 0.0 3.2 0.00 0.05 0.05 89 1012.0
20260509170759 14 339 3.2 4.8 0.00 0.05 0.05 88 1012.1
20260509170254 14 330 3.2 3.2 0.00 0.05 0.05 89 1012.0
20260509165754 14 9 1.6 1.6 0.00 0.05 0.05 89 1012.0
20260509165249 14 350 1.6 3.2 0.00 0.05 0.05 88 1012.2
20260509164745 14 55 0.0 0.0 0.00 0.05 0.05 88 1012.1
20260509164241 14 60 0.0 1.6 0.00 0.05 0.05 89 1012.2
20260509163738 14 89 3.2 3.2 0.00 0.05 0.05 88 1012.4
20260509163234 14 55 1.6 3.2 0.00 0.05 0.05 89 1012.4
20260509162733 13 63 1.6 3.2 0.00 0.05 0.05 89 1012.4
20260509162227 13 76 0.0 0.0 0.00 0.05 0.05 90 1012.6
20260509161723 13 127 0.0 0.0 0.00 0.05 0.05 90 1012.8
20260509161220 13 109 3.2 3.2 0.00 0.05 0.05 90 1012.7
20260509160721 13 64 0.0 0.0 0.00 0.05 0.05 91 1012.7
20260509160217 13 111 1.6 1.6 0.00 0.05 0.05 91 1012.6
20260509155712 13 89 0.0 0.0 0.00 0.05 0.05 90 1012.7
20260509155209 13 72 0.0 1.6 0.00 0.05 0.05 91 1012.7
20260509154705 13 333 1.6 3.2 0.00 0.05 0.05 91 1012.8
20260509154202 13 32 1.6 3.2 0.00 0.05 0.05 91 1012.5
20260509153659 13 38 3.2 3.2 0.00 0.05 0.05 90 1012.7
20260509153156 13 124 1.6 4.8 0.00 0.05 0.05 91 1012.8
20260509152652 13 112 0.0 0.0 0.00 0.05 0.05 90 1013.1
20260509152149 13 36 0.0 1.6 0.00 0.05 0.05 91 1013.0
20260509151645 12 57 0.0 1.6 0.00 0.05 0.05 91 1012.9
20260509151143 13 107 0.0 1.6 0.00 0.05 0.05 90 1012.8
20260509150641 13 66 1.6 3.2 0.00 0.05 0.05 90 1012.9
20260509150139 13 104 1.6 3.2 0.00 0.05 0.05 89 1012.8
20260509145635 12 76 0.0 0.0 0.00 0.05 0.05 89 1012.8
20260509145130 12 124 0.0 0.0 0.00 0.05 0.05 90 1012.7
20260509144627 12 336 0.0 0.0 0.00 0.05 0.05 91 1012.8
20260509144124 12 322 0.0 0.0 0.00 0.05 0.05 92 1013.1
20260509143621 12 337 1.6 3.2 0.00 0.05 0.05 94 1013.0
20260509143119 12 340 1.6 1.6 0.00 0.05 0.05 94 1013.1
20260509142613 11 350 3.2 4.8 0.00 0.05 0.05 94 1013.0
20260509142110 11 23 3.2 3.2 0.00 0.05 0.05 94 1012.9
20260509141606 11 64 3.2 3.2 0.00 0.05 0.05 95 1013.0
20260509141103 11 47 1.6 1.6 0.00 0.05 0.05 95 1013.0
20260509140600 11 53 0.0 1.6 0.00 0.05 0.05 95 1013.0
20260509140058 11 62 0.0 3.2 0.00 0.05 0.05 95 1013.0
20260509135555 11 63 3.2 3.2 0.18 0.05 0.05 95 1013.1
20260509135052 11 81 1.6 3.2 0.18 0.05 0.05 95 1013.2
20260509134549 11 71 1.6 3.2 0.00 0.03 0.03 95 1013.2
20260509134047 11 54 1.6 3.2 0.00 0.03 0.03 94 1013.3
20260509133543 11 26 0.0 0.0 0.00 0.03 0.03 94 1013.1
20260509133041 11 25 0.0 1.6 0.00 0.03 0.03 95 1013.2
20260509132540 11 27 0.0 0.0 0.00 0.03 0.03 95 1013.2
20260509132038 11 26 0.0 0.0 0.00 0.03 0.03 95 1013.1
20260509131533 10 27 0.0 0.0 0.00 0.03 0.03 95 1013.3
20260509131030 10 27 0.0 0.0 0.13 0.03 0.03 95 1012.9
20260509130525 10 27 0.0 0.0 0.13 0.03 0.03 95 1013.0
20260509130023 10 27 1.6 1.6 0.00 0.00 0.00 95 1013.1
20260509125519 10 47 0.0 0.0 0.00 0.00 0.00 95 1012.9
20260509125016 10 76 0.0 0.0 0.00 0.00 0.00 95 1013.0
20260509124512 10 76 0.0 0.0 0.00 0.00 0.00 95 1012.8
20260509124010 10 76 0.0 0.0 0.00 0.00 0.00 95 1013.1
20260509123508 10 76 0.0 0.0 0.00 0.00 0.00 95 1013.0
20260509123003 10 76 0.0 0.0 0.00 0.00 0.00 95 1012.9
20260509122500 10 76 0.0 0.0 0.00 0.00 0.00 94 1012.9
20260509121957 10 76 0.0 0.0 0.00 0.00 0.00 94 1013.0
20260509121453 10 96 0.0 0.0 0.00 0.00 0.00 94 1013.0
20260509120952 10 105 0.0 0.0 0.00 0.00 0.00 94 1013.0
20260509120449 10 128 0.0 0.0 0.00 0.00 0.00 94 1012.8
20260509115947 10 293 0.0 0.0 0.00 0.00 0.00 94 1013.0
20260509115444 10 293 0.0 0.0 0.00 0.00 0.00 94 1013.0
20260509114941 10 293 0.0 0.0 0.00 0.00 0.00 93 1013.0
20260509114440 10 293 0.0 0.0 0.00 0.00 0.00 93 1012.9
20260509113939 10 294 0.0 0.0 0.00 0.00 0.00 92 1012.9
20260509113436 10 294 0.0 0.0 0.00 0.00 0.00 93 1012.8
20260509112933 10 293 0.0 0.0 0.00 0.00 0.00 93 1012.8
20260509112430 10 292 0.0 0.0 0.00 0.00 0.00 93 1012.9
20260509111927 10 292 0.0 0.0 0.00 0.00 0.00 93 1012.7
20260509111424 10 292 1.6 1.6 0.00 0.00 0.00 93 1012.7
20260509110921 10 289 0.0 0.0 0.00 0.00 0.00 93 1012.7
20260509110417 10 289 0.0 0.0 0.00 0.00 0.00 94 1012.9
20260509105915 10 289 0.0 0.0 0.00 0.00 0.00 94 1013.0
20260509105414 10 289 1.6 3.2 0.00 0.00 0.00 94 1012.8
20260509104910 10 222 0.0 0.0 0.00 0.00 0.00 93 1012.7
20260509104407 10 222 0.0 0.0 0.00 0.00 0.00 93 1012.6
20260509103904 10 127 0.0 0.0 0.00 0.00 0.00 93 1012.8
20260509103401 10 127 0.0 0.0 0.00 0.00 0.00 92 1012.5
20260509102900 10 28 0.0 0.0 0.00 0.00 0.00 94 1012.5
20260509102357 10 28 0.0 0.0 0.00 0.00 0.00 94 1012.4
20260509101853 10 28 0.0 0.0 0.00 0.00 0.00 93 1012.4
20260509101349 10 28 0.0 0.0 0.00 0.00 0.00 93 1012.6
20260509100847 10 28 0.0 0.0 0.00 0.00 0.00 93 1012.4
20260509100344 9 18 0.0 0.0 0.00 0.00 0.00 92 1012.3
20260509095841 9 28 0.0 0.0 0.00 0.00 0.00 92 1012.2
20260509095338 10 28 0.0 0.0 0.00 0.00 0.00 93 1012.3
20260509094835 10 28 0.0 0.0 0.00 0.00 0.00 93 1012.3
20260509094331 10 18 0.0 0.0 0.00 0.00 0.00 93 1012.3
20260509093829 10 28 0.0 0.0 0.00 0.00 0.00 93 1012.3
20260509093326 10 28 0.0 0.0 0.00 0.00 0.00 93 1012.3
20260509092825 9 18 0.0 0.0 0.00 0.00 0.00 93 1012.2
20260509092322 10 18 0.0 0.0 0.00 0.00 0.00 93 1012.3
20260509091820 10 18 0.0 0.0 0.00 0.00 0.00 93 1012.4
20260509091317 10 28 0.0 0.0 0.00 0.00 0.00 93 1012.4
20260509090814 10 106 0.0 0.0 0.00 0.00 0.00 92 1012.5
20260509090311 10 106 0.0 0.0 0.00 0.00 0.00 92 1012.5
20260509085808 10 126 0.0 1.6 0.00 0.00 0.00 92 1012.5
20260509085306 10 209 0.0 0.0 0.00 0.00 0.00 91 1012.5
20260509084802 9 294 1.6 1.6 0.00 0.00 0.00 90 1012.5
20260509084259 9 293 0.0 0.0 0.00 0.00 0.00 92 1012.3
20260509083757 9 293 0.0 0.0 0.00 0.00 0.00 91 1012.6
20260509083253 9 293 1.6 1.6 0.00 0.00 0.00 90 1012.4
20260509082750 9 293 0.0 1.6 0.00 0.00 0.00 91 1012.3
20260509082246 9 287 0.0 0.0 0.00 0.00 0.00 91 1012.3
20260509081744 9 286 0.0 0.0 0.00 0.00 0.00 91 1012.4
20260509081241 9 286 0.0 0.0 0.00 0.00 0.00 91 1012.4
20260509080739 9 277 0.0 0.0 0.00 0.00 0.00 91 1012.3
20260509080236 9 277 0.0 0.0 0.00 0.00 0.00 92 1012.3
20260509075734 9 277 1.6 3.2 0.00 0.00 0.00 91 1012.4
20260509075232 9 295 0.0 0.0 0.00 0.00 0.00 91 1012.4
20260509074728 9 295 0.0 0.0 0.00 0.00 0.00 91 1012.4
20260509074226 9 296 0.0 0.0 0.00 0.00 0.00 91 1012.2
20260509073722 9 296 0.0 0.0 0.00 0.00 0.00 90 1012.3
20260509073219 9 296 0.0 0.0 0.00 0.00 0.00 90 1012.4
20260509072715 9 295 0.0 0.0 0.00 0.00 0.00 92 1012.3
20260509072212 9 295 0.0 0.0 0.00 0.00 0.00 92 1012.2
20260509071709 9 295 0.0 1.6 0.00 0.00 0.00 91 1012.2
20260509071206 9 295 0.0 0.0 0.00 0.00 0.00 91 1012.3
20260509070703 9 295 0.0 1.6 0.00 0.00 0.00 91 1012.3
20260509070159 9 257 0.0 0.0 0.00 0.00 0.00 92 1012.5
20260509065655 8 229 0.0 0.0 0.00 0.00 0.00 92 1012.3
20260509065152 8 292 0.0 0.0 0.00 0.00 0.00 92 1012.3
20260509064649 8 309 0.0 0.0 0.00 0.00 0.00 91 1012.3
20260509064146 9 309 0.0 0.0 0.00 0.00 0.00 91 1012.1
20260509063643 9 306 0.0 1.6 0.00 0.00 0.00 90 1012.3
20260509063140 10 260 0.0 1.6 0.00 0.00 0.00 89 1012.5
20260509062637 10 347 0.0 0.0 0.00 0.00 0.00 89 1012.5
20260509062134 10 221 0.0 0.0 0.00 0.00 0.00 88 1012.5
20260509061631 10 266 0.0 0.0 0.00 0.00 0.00 90 1012.4
20260509061128 10 280 0.0 0.0 0.00 0.00 0.00 90 1012.4
20260509060626 10 316 0.0 1.6 0.00 0.00 0.00 89 1012.4
20260509060121 11 357 0.0 1.6 0.00 0.00 0.00 88 1012.5
20260509055617 11 34 0.0 0.0 0.00 0.00 0.00 88 1012.6
20260509055113 11 30 0.0 0.0 0.00 0.00 0.00 87 1012.6
20260509054610 11 30 0.0 0.0 0.00 0.00 0.00 84 1012.8
20260509054108 11 30 0.0 0.0 0.00 0.00 0.00 83 1012.6
20260509053606 11 30 0.0 0.0 0.00 0.00 0.00 82 1012.7
20260509053103 11 328 0.0 0.0 0.00 0.00 0.00 83 1012.7
20260509052601 11 358 0.0 0.0 0.00 0.00 0.00 87 1013.0
20260509052058 11 319 0.0 0.0 0.00 0.00 0.00 88 1013.0
20260509051556 11 319 0.0 0.0 0.00 0.00 0.00 87 1012.9
20260509051053 11 350 0.0 0.0 0.00 0.00 0.00 87 1013.0
20260509050550 11 352 0.0 0.0 0.00 0.00 0.00 87 1012.9
20260509050046 11 358 0.0 0.0 0.00 0.00 0.00 86 1013.0
20260509045544 11 358 0.0 0.0 0.00 0.00 0.00 86 1013.1
20260509045040 11 358 0.0 0.0 0.00 0.00 0.00 84 1012.9
20260509044538 11 12 0.0 0.0 0.00 0.00 0.00 85 1012.9
20260509044035 11 347 0.0 0.0 0.00 0.00 0.00 85 1012.9
20260509043531 11 290 0.0 1.6 0.00 0.00 0.00 87 1012.9
20260509043027 11 14 0.0 0.0 0.00 0.00 0.00 86 1012.7
20260509042523 11 292 0.0 0.0 0.00 0.00 0.00 85 1012.8
20260509042020 11 292 0.0 0.0 0.00 0.00 0.00 85 1012.9
20260509041517 11 305 0.0 0.0 0.00 0.00 0.00 84 1012.9
20260509041014 11 276 0.0 0.0 0.00 0.00 0.00 85 1013.0
20260509040513 11 225 0.0 0.0 0.00 0.00 0.00 85 1013.1
20260509040009 11 225 0.0 0.0 0.00 0.00 0.00 85 1013.0
20260509035506 11 276 0.0 0.0 0.00 0.00 0.00 83 1013.2
20260509035003 12 344 0.0 0.0 0.00 0.00 0.00 83 1013.0
20260509034501 12 344 0.0 0.0 0.00 0.00 0.00 82 1012.9
20260509033957 12 343 0.0 0.0 0.00 0.00 0.00 82 1013.0
20260509033454 12 280 0.0 0.0 0.00 0.00 0.00 82 1013.0
20260509032951 11 223 0.0 0.0 0.00 0.00 0.00 80 1012.8
20260509032448 12 270 0.0 0.0 0.00 0.00 0.00 84 1012.9
20260509031946 12 350 0.0 0.0 0.00 0.00 0.00 82 1012.8
20260509031443 12 351 0.0 1.6 0.00 0.00 0.00 80 1012.9
20260509030940 12 284 0.0 1.6 0.00 0.00 0.00 79 1013.0
20260509030438 12 139 0.0 1.6 0.00 0.00 0.00 75 1012.9
20260509025935 12 337 0.0 0.0 0.00 0.00 0.00 74 1013.1
20260509025431 12 336 0.0 0.0 0.00 0.00 0.00 79 1013.1
20260509024926 12 336 0.0 0.0 0.00 0.00 0.00 78 1012.9
20260509024422 12 336 0.0 0.0 0.00 0.00 0.00 78 1013.4
20260509023919 12 336 0.0 0.0 0.00 0.00 0.00 77 1013.2
20260509023417 12 336 0.0 1.6 0.00 0.00 0.00 78 1013.3
20260509022913 12 335 1.6 1.6 0.00 0.00 0.00 77 1013.2
20260509022410 12 336 0.0 0.0 0.00 0.00 0.00 78 1013.1
20260509021908 12 335 0.0 0.0 0.00 0.00 0.00 77 1013.2
20260509021404 12 342 0.0 3.2 0.00 0.00 0.00 75 1013.2
20260509020902 12 342 0.0 0.0 0.00 0.00 0.00 76 1013.2
20260509020400 12 342 0.0 0.0 0.00 0.00 0.00 78 1013.1
20260509015857 12 342 0.0 0.0 0.00 0.00 0.00 75 1013.1
20260509015355 12 342 0.0 0.0 0.00 0.00 0.00 77 1012.8
20260509014851 12 342 0.0 0.0 0.00 0.00 0.00 76 1013.1
20260509014348 12 342 1.6 1.6 0.00 0.00 0.00 72 1012.9
20260509013845 12 342 1.6 3.2 0.00 0.00 0.00 75 1013.0
20260509013342 12 326 0.0 0.0 0.00 0.00 0.00 75 1012.7
20260509012837 12 339 0.0 1.6 0.00 0.00 0.00 75 1012.7
20260509012334 12 340 0.0 0.0 0.00 0.00 0.00 72 1012.8
20260509011832 12 330 0.0 0.0 0.00 0.00 0.00 73 1012.7
20260509011329 12 329 0.0 0.0 0.00 0.00 0.00 73 1012.5
20260509010827 13 330 0.0 0.0 0.00 0.00 0.00 75 1012.5
20260509010324 13 333 0.0 0.0 0.00 0.00 0.00 69 1012.4
20260509005816 13 333 3.2 3.2 0.00 0.00 0.00 69 1012.7
20260509005314 13 314 0.0 0.0 0.00 0.00 0.00 68 1012.5
20260509004813 13 314 0.0 0.0 0.00 0.00 0.00 65 1012.7
20260509004310 14 314 0.0 0.0 0.00 0.00 0.00 64 1012.6
20260509003808 13 290 0.0 0.0 0.00 0.00 0.00 63 1012.4
20260509003306 13 279 0.0 0.0 0.00 0.00 0.00 65 1012.7
20260509002803 13 277 0.0 0.0 0.00 0.00 0.00 67 1012.4
20260509002300 13 276 0.0 0.0 0.00 0.00 0.00 68 1012.3
20260509001758 13 276 0.0 0.0 0.00 0.00 0.00 70 1012.2
20260509001253 14 276 0.0 0.0 0.00 0.00 0.00 68 1012.5
20260509000751 15 276 0.0 0.0 0.00 0.00 0.00 66 1012.3
20260509000248 15 276 0.0 0.0 0.00 0.00 0.00 65 1012.3
20260508235745 16 276 0.0 0.0 0.00 0.00 0.00 63 1012.2
20260508235242 17 276 0.0 0.0 0.00 0.00 0.00 59 1012.3
20260508234739 18 274 0.0 0.0 0.00 0.00 0.00 47 1012.3
20260508234235 18 275 1.6 3.2 0.00 0.00 0.00 44 1012.3
20260508233729 18 268 1.6 3.2 0.00 0.00 0.00 44 1012.3
20260508233226 18 250 3.2 3.2 0.00 0.00 0.00 42 1012.3
20260508232724 19 241 3.2 4.8 0.00 0.00 0.00 40 1012.2
20260508232220 20 274 6.4 6.4 0.00 0.00 0.00 38 1012.2
20260508231718 20 276 3.2 3.2 0.00 0.00 0.00 39 1012.1
20260508231215 20 283 3.2 4.8 0.00 0.00 0.00 39 1012.0
20260508230712 20 262 4.8 6.4 0.00 0.00 0.00 37 1012.3
20260508230207 20 256 3.2 4.8 0.00 0.00 0.00 37 1012.2
20260508225706 20 275 6.4 11.3 0.00 0.00 0.00 38 1012.5
20260508225201 20 270 1.6 6.4 0.00 0.00 0.00 37 1012.2
20260508224700 20 301 6.4 11.3 0.00 0.00 0.00 36 1012.4
20260508224157 20 275 6.4 9.7 0.00 0.00 0.00 39 1012.5
20260508223654 20 242 12.9 14.5 0.00 0.00 0.00 36 1012.6
20260508223152 20 298 6.4 9.7 0.00 0.00 0.00 36 1012.6
20260508222649 21 235 8.0 16.1 0.00 0.00 0.00 37 1012.7
20260508222146 21 262 8.0 9.7 0.00 0.00 0.00 37 1012.8
20260508221642 20 307 4.8 9.7 0.00 0.00 0.00 39 1012.8
20260508221138 20 292 4.8 9.7 0.00 0.00 0.00 37 1012.6
20260508220635 20 263 9.7 12.9 0.00 0.00 0.00 36 1012.7
20260508220131 21 239 6.4 17.7 0.00 0.00 0.00 36 1012.7
20260508215628 22 312 4.8 9.7 0.00 0.00 0.00 36 1012.6
20260508215125 21 255 1.6 4.8 0.00 0.00 0.00 36 1012.9
20260508214622 20 300 1.6 6.4 0.00 0.00 0.00 38 1012.8
20260508214119 20 250 4.8 6.4 0.00 0.00 0.00 40 1012.7
20260508213616 20 277 8.0 12.9 0.00 0.00 0.00 37 1012.8
20260508213112 20 253 9.7 11.3 0.00 0.00 0.00 37 1012.9
20260508212608 20 259 3.2 4.8 0.00 0.00 0.00 40 1013.0
20260508212105 20 256 8.0 11.3 0.00 0.00 0.00 38 1012.9
20260508211600 19 263 6.4 6.4 0.00 0.00 0.00 40 1012.8
20260508211057 19 231 4.8 11.3 0.00 0.00 0.00 38 1013.2
20260508210553 19 285 4.8 9.7 0.00 0.00 0.00 41 1013.3
20260508210051 20 207 14.5 17.7 0.00 0.00 0.00 37 1013.0
20260508205548 20 221 4.8 16.1 0.00 0.00 0.00 39 1013.0
20260508205044 21 319 3.2 4.8 0.00 0.00 0.00 34 1013.2
20260508204541 20 280 3.2 11.3 0.00 0.00 0.00 38 1013.2
20260508204037 19 277 3.2 14.5 0.00 0.00 0.00 38 1013.2
20260508203533 18 292 3.2 9.7 0.00 0.00 0.00 38 1013.5
20260508203029 19 271 3.2 4.8 0.00 0.00 0.00 42 1013.3
20260508202526 18 300 0.0 6.4 0.00 0.00 0.00 43 1013.5
20260508202023 18 284 3.2 9.7 0.00 0.00 0.00 41 1013.5